sat.trackr.live / text

‹ back to catalog

RAPTOR3

NORAD 58958 · 2024-028D

PAYLOAD ACTIVE UNKNOWN

§ Identity

Operator
Country
US
Launch date
2024-02-14
Launch site
AFETR
Launch vehicle
Mass (kg)
RCS (m²)

External: N2YO · Heavens-Above · Gunter

§ Orbital elements

Epoch: 2026-05-24T23:59:23.523648Z

Period
105.07 min
Inclination
39.9890°
Eccentricity
0.0010666
Mean motion
13.70485284 rev/d
Perigee alt
990.0 km
Apogee alt
1,005.7 km
Semi-major
7,376.0 km
B*
3.6295e-5
RAAN
149.8964°
Arg perigee
123.8459°
Mean anomaly
236.3304°
Rev number
11,388

§ Raw data

RAPTOR31 58958U 24028D   26144.99957782 -.00000045  00000+0  36295-4 0  99922 58958  39.9890 149.8964 0010666 123.8459 236.3304 13.70485284113881

JSON: /api/v1/satellites/58958 · /tle

For live sub-satellite position, see the globe view (requires WebGL).

§ Visibility from observer

Set your observer location to see the next 7 days of passes ≥ 10°. The values pass through the URL so the page stays shareable.

No JS? Fill the form by hand. The geolocation button needs JavaScript.